Home   Weather   St. George   Past weeks

Flag for USA Past Weather in St. George, Utah, USA — Yesterday and Last 2 Weeks

Now
77 °F

Sunny.


Feels Like: 77 °F
Forecast: 59 / 83 °F
Wind: 12 mph from Northeast

Location: Saint George

Current Time: Sep 25, 2016 at 1:19:06 PM

Latest Report: Sep 25, 2016 at 12:55 PM


Visibility: 10 mi

Pressure: 30.31 "Hg (27.52 "Hg at 842m altitude)

Humidity: 21%

Dew Point: 34 °F

Location of St. GeorgeLocation

Past Weather in St. George — Graph

°F

St. George Temperature Yesterday

Maximum temperature yesterday: 81 °F (at 5:35 PM)
Minimum temperature yesterday: 50 °F (at 7:15 AM)
Average temperature yesterday: 65 °F

High & Low Weather Summary for the Past Weeks

 TemperatureHumidityPressure
High99 °F (Sep 10, 3:55 PM)88% (Sep 21, 8:35 PM)30.35 "Hg (Sep 21, 8:35 PM)
Low50 °F (Sep 24, 7:15 AM)9% (Sep 10, 7:35 PM)29.60 "Hg (Sep 22, 4:35 PM)
Average74 °F28%30.02 "Hg
* Reported Sep 10 12:15 PM — Sep 25 12:15 PM, St. George, Weather by CustomWeather, © 2016

Note: Actual official high and low records may vary slightly from our data, if they occured in-between our weather recording intervals... More about our weather records

Advertising

St. George Weather History for the Previous 24 Hours

Scroll right to see more
 ConditionsComfort  
Time TempWeatherWind HumidityBarometerVisibility
12:15 PM
Sun, Sep 25
73 °FSunny.12 mph23%30.33 "Hg10 mi
11:55 AM75 °FSunny.13 mph22%30.34 "Hg10 mi
11:35 AM73 °FSunny.14 mph23%30.34 "Hg10 mi
11:15 AM73 °FSunny.15 mph23%30.34 "Hg10 mi
10:55 AM72 °FSunny.16 mph27%30.35 "Hg10 mi
10:35 AM70 °FSunny.15 mph29%30.35 "Hg10 mi
10:15 AM70 °FSunny.16 mph29%30.35 "Hg10 mi
9:55 AM68 °FSunny.15 mph30%30.35 "Hg10 mi
9:35 AM68 °FSunny.17 mph30%30.34 "Hg10 mi
9:15 AM66 °FSunny.10 mph32%30.34 "Hg10 mi
8:55 AM61 °FSunny.8 mph36%30.34 "Hg10 mi
8:35 AM59 °FSunny.5 mph39%30.34 "Hg10 mi
8:15 AM61 °FSunny.3 mph36%30.33 "Hg10 mi
7:55 AM59 °FSunny.8 mph36%30.32 "Hg10 mi
7:35 AM59 °FSunny.5 mph36%30.31 "Hg10 mi
7:15 AM61 °FClear.7 mph34%30.31 "Hg10 mi
6:55 AM61 °FClear.3 mph34%30.31 "Hg10 mi
6:35 AM63 °FClear.10 mph32%30.29 "Hg10 mi
6:15 AM61 °FClear.13 mph34%30.29 "Hg10 mi
5:55 AM63 °FClear.15 mph30%30.28 "Hg10 mi
5:35 AM63 °FClear.8 mph32%30.27 "Hg10 mi
5:15 AM63 °FClear.3 mph32%30.27 "Hg10 mi
4:55 AM63 °FClear.5 mph32%30.26 "Hg10 mi
4:35 AM63 °FClear.No wind32%30.26 "Hg10 mi
4:15 AM63 °FClear.8 mph32%30.26 "Hg10 mi
3:55 AM64 °FClear.12 mph30%30.26 "Hg10 mi
3:35 AM66 °FClear.13 mph26%30.26 "Hg10 mi
3:15 AM66 °FClear.12 mph28%30.26 "Hg10 mi
2:55 AM68 °FClear.16 mph26%30.26 "Hg10 mi
2:35 AM70 °FClear.24 mph25%30.25 "Hg10 mi
2:15 AM68 °FClear.14 mph26%30.25 "Hg10 mi
1:55 AM70 °FClear.18 mph25%30.24 "Hg10 mi
1:35 AM70 °FClear.28 mph27%30.24 "Hg10 mi
1:15 AM70 °FClear.26 mph27%30.23 "Hg10 mi
12:55 AM70 °FClear.23 mph27%30.24 "Hg10 mi
12:35 AM70 °FClear.24 mph29%30.22 "Hg10 mi
12:15 AM70 °FClear.23 mph29%30.22 "Hg10 mi
11:55 PM
Sat, Sep 24
70 °FClear.21 mph29%30.22 "Hg10 mi
11:35 PM70 °FClear.26 mph27%30.22 "Hg10 mi
11:15 PM72 °FClear.20 mph25%30.21 "Hg10 mi
10:55 PM72 °FClear.17 mph25%30.21 "Hg10 mi
10:35 PM72 °FClear.23 mph27%30.21 "Hg10 mi
10:15 PM72 °FClear.23 mph27%30.20 "Hg10 mi
9:55 PM72 °FClear.24 mph27%30.19 "Hg10 mi
9:35 PM72 °FClear.15 mph27%30.18 "Hg10 mi
9:15 PM72 °FClear.18 mph25%30.18 "Hg10 mi
8:55 PM73 °FClear.16 mph23%30.17 "Hg10 mi
8:35 PM73 °FClear.12 mph23%30.15 "Hg10 mi
7:55 PM73 °FClear.9 mph23%30.14 "Hg10 mi
7:35 PM75 °FClear.15 mph24%30.13 "Hg10 mi
7:15 PM77 °FSunny.15 mph22%30.12 "Hg10 mi
6:55 PM81 °FSunny.7 mph20%30.12 "Hg10 mi
6:35 PM81 °FSunny.No wind18%30.12 "Hg10 mi
6:15 PM81 °FSunny.3 mph20%30.11 "Hg10 mi
5:55 PM81 °FSunny.6 mph20%30.12 "Hg10 mi
5:35 PM81 °FSunny.5 mph20%30.12 "Hg10 mi
4:55 PM79 °FSunny.5 mph21%30.12 "Hg10 mi
4:35 PM79 °FSunny.No wind23%30.12 "Hg10 mi
4:15 PM79 °FSunny.No wind23%30.13 "Hg10 mi
3:55 PM75 °FSunny.No wind24%30.13 "Hg10 mi
3:35 PM77 °FSunny.6 mph22%30.13 "Hg10 mi
3:15 PM75 °FSunny.7 mph24%30.13 "Hg10 mi
2:55 PM77 °FSunny.No wind24%30.14 "Hg10 mi
2:35 PM75 °FSunny.No wind24%30.15 "Hg10 mi
2:15 PM75 °FSunny.No wind24%30.16 "Hg10 mi
1:55 PM73 °FSunny.6 mph25%30.17 "Hg10 mi
1:35 PM72 °FSunny.5 mph27%30.18 "Hg10 mi
1:15 PM72 °FSunny.No wind27%30.18 "Hg10 mi
Weather by CustomWeather, © 2016

See weather overviewHow to use our weather pages